Weather Roundup
Issued by NWS Chicago, IL

Home | Current Version | Previous Version | Text Only | Print | Product List | Glossary On
Versions: 1 2 3 4 5 6 7 8 9 10 11 12 13 14 15 16 17 18 19 20 21 22 23 24 25 26 27 28 29 30 31 32 33 34 35 36 37 38 39 40 41 42 43 44 45 46 47 48 49 50
000
NZUS59 KLOT 170703
HRRLOT

CHICAGO AREA WEATHER ROUNDUP
NATIONAL WEATHER SERVICE CHICAGO/ROMEOVILLE IL
100 AM CST SUN DEC 17 2017

NOTE: "FAIR" INDICATES FEW OR NO CLOUDS BELOW 12,000 FEET WITH NO
SIGNIFICANT WEATHER AND/OR OBSTRUCTIONS TO VISIBILITY.

* THESE STATIONS ARE NOT UNDER NWS QUALITY CONTROL. THEY ALSO MAY NOT
  REPORT WEATHER SUCH AS PRECIPITATION OR FOG.

ILZ005-006-012>014-019>023-170800-
NORTHEAST ILLINOIS

CITY           SKY/WX    TMP DP  RH WIND       PRES   REMARKS
OHARE          CLOUDY    32  30  92 N6        30.05R WCI  26
MIDWAY         CLOUDY    35  32  88 N5        30.05R WCI  31
AURORA         CLOUDY    31  29  92 NE6       30.05S FOG     WCI  25
LANSING*       PTCLDY    26  24  93 CALM      30.05S
JOLIET*        PTCLDY    27  24  90 CALM      30.04F
WAUKEGAN       CLOUDY    35  33  92 NE8       30.06F FOG     WCI  29
DUPAGE AIRPORT CLOUDY    28  28 100 NE3       30.04R FOG
WHEELING       CLOUDY    33  31  92 CALM      30.08S FOG
NORTHERLY ISL    N/A     36  33  89 N5          N/A
$$

WIZ051-052-058>065-066-070>072-170800-
SOUTHEAST WISCONSIN

CITY           SKY/WX    TMP DP  RH WIND       PRES   REMARKS
MILWAUKEE      CLOUDY    35  32  88 E9        30.09F WCI  28
KENOSHA*       CLOUDY    35  31  85 NE12      30.07F WCI  27
RACINE*        CLOUDY    35  32  88 NE9       30.09F WCI  28
$$

INZ001>003-010>013-019-020-170800-
NORTHWEST INDIANA

CITY           SKY/WX    TMP DP  RH WIND       PRES   REMARKS
GARY*          CLOUDY    28  26  93 CALM      30.06S
MICHIGAN CITY* NOT AVBL
RENSSELAER*    NOT AVBL
VALPARAISO     CLOUDY    33  26  75 CALM      30.06S
$$

LMZ740>746-170800-
SOUTHERN LAKE MICHIGAN

STATION/POSITION TIME  SKY/WX   TEMP WIND        PRES    VSBY
                                AIR  DIR/SP/G
                 (UTC)          (F)  (DEG/KT/KT) (MB)    (MI)
HARRISON CRIB    0540            40   50/  8/  8   N/A
BURNHAM HARBOR   0700            36  350/  4/  5   N/A
CALUMET HARBOR   0630            35   CALM  /  2 1016.9R
BURNS HARBOR     0640            37  190/  5/  6 1018.3S
MICHIGAN CITY    0540            36  130/  6/  7   N/A
$$

ABBREVIATIONS USED IN REMARKS
   TC - TEMPERATURE IN CELSIUS
  WCI - WIND CHILL INDEX
   HX - HEAT INDEX
  VSB - VISIBILITY
$$




USA.gov is the U.S. government's official web portal to all federal, state and local government web resources and services.